UEX YSSY-YSSY

Flight info

Callsign UEX
Flight time 0h 20m
Altitude 1000
Route YSSY
Aircraft A319/L-SDE3FGHIRWY/LB1

Departure

Time 2026-04-20 04:04
Airport Sydney Kingsford Smith International Airport (YSSY)

Arrival

Time 2026-04-20 04:24
Airport Sydney Kingsford Smith International Airport (YSSY)
Time Latitude Longitude Altitude Speed Heading
2026-04-20 03:50 -33.94359 151.18017 25 ft 0 kts 169°
2026-04-20 03:54 -33.94352 151.18015 29 ft 3 kts 169°
2026-04-20 03:54 -33.94333 151.18011 28 ft 3 kts 169°
2026-04-20 03:54 -33.94315 151.18006 29 ft 3 kts 169°
2026-04-20 03:54 -33.94296 151.18002 30 ft 3 kts 169°
2026-04-20 03:55 -33.94278 151.17998 28 ft 3 kts 176°
2026-04-20 03:55 -33.94261 151.18001 28 ft 2 kts 218°
2026-04-20 03:55 -33.94256 151.18005 29 ft 0 kts 230°
2026-04-20 03:56 -33.94255 151.18005 29 ft 0 kts 230°
2026-04-20 03:59 -33.94256 151.18005 29 ft 1 kts 230°
2026-04-20 03:59 -33.94279 151.17923 29 ft 18 kts 244°
2026-04-20 04:00 -33.94410 151.17911 26 ft 19 kts 168°
2026-04-20 04:00 -33.94555 151.17890 26 ft 24 kts 167°
2026-04-20 04:00 -33.94714 151.17933 24 ft 20 kts 167°
2026-04-20 04:00 -33.94865 151.17972 22 ft 22 kts 167°
2026-04-20 04:01 -33.94999 151.18006 25 ft 14 kts 168°
2026-04-20 04:01 -33.95099 151.18068 27 ft 18 kts 108°
2026-04-20 04:01 -33.95078 151.18239 25 ft 19 kts 78°
2026-04-20 04:01 -33.95050 151.18397 26 ft 15 kts 77°
2026-04-20 04:02 -33.95023 151.18550 26 ft 17 kts 77°
2026-04-20 04:02 -33.94999 151.18682 25 ft 7 kts 77°
2026-04-20 04:02 -33.94993 151.18712 25 ft 0 kts 77°
2026-04-20 04:03 -33.95003 151.18821 24 ft 19 kts 120°
2026-04-20 04:03 -33.95125 151.18874 25 ft 14 kts 168°
2026-04-20 04:03 -33.95319 151.18925 21 ft 69 kts 168°
2026-04-20 04:04 -33.96134 151.19136 165 ft 153 kts 169°
2026-04-20 04:04 -33.97238 151.19483 485 ft 172 kts 160°
2026-04-20 04:04 -33.98266 151.20291 680 ft 173 kts 135°
2026-04-20 04:04 -33.98573 151.21517 973 ft 146 kts 83°
2026-04-20 04:05 -33.97902 151.22332 1012 ft 155 kts 23°
2026-04-20 04:05 -33.96838 151.22345 1126 ft 143 kts 347°
2026-04-20 04:05 -33.95967 151.22069 1185 ft 138 kts 342°
2026-04-20 04:05 -33.95079 151.21744 1227 ft 123 kts 340°
2026-04-20 04:06 -33.94198 151.21461 1174 ft 149 kts 344°
2026-04-20 04:06 -33.93447 151.20587 1233 ft 169 kts 282°
2026-04-20 04:06 -33.93630 151.19267 1078 ft 149 kts 232°
2026-04-20 04:06 -33.94442 151.18725 458 ft 136 kts 183°
2026-04-20 04:07 -33.95349 151.18929 45 ft 121 kts 169°
2026-04-20 04:07 -33.96058 151.19113 29 ft 99 kts 167°
2026-04-20 04:07 -33.96945 151.19363 238 ft 149 kts 165°
2026-04-20 04:07 -33.97629 151.20174 783 ft 149 kts 109°
2026-04-20 04:08 -33.97342 151.21515 1133 ft 196 kts 59°
2026-04-20 04:08 -33.96134 151.22449 1476 ft 206 kts 18°
2026-04-20 04:08 -33.94781 151.22269 1325 ft 189 kts 342°
2026-04-20 04:08 -33.93575 151.21858 1303 ft 174 kts 342°
2026-04-20 04:09 -33.92467 151.21433 1364 ft 166 kts 335°
2026-04-20 04:09 -33.91882 151.20370 1385 ft 151 kts 261°
2026-04-20 04:09 -33.92205 151.19252 1273 ft 136 kts 230°
2026-04-20 04:09 -33.92937 151.18610 1056 ft 129 kts 192°
2026-04-20 04:10 -33.93826 151.18581 572 ft 127 kts 174°
2026-04-20 04:10 -33.94677 151.18759 157 ft 120 kts 170°
2026-04-20 04:10 -33.95429 151.18954 25 ft 96 kts 169°
2026-04-20 04:10 -33.96108 151.19127 87 ft 124 kts 170°
2026-04-20 04:11 -33.96942 151.19438 272 ft 125 kts 147°
2026-04-20 04:11 -33.97097 151.20496 643 ft 165 kts 83°
2026-04-20 04:11 -33.96537 151.21903 923 ft 189 kts 59°
2026-04-20 04:11 -33.95539 151.22797 1128 ft 175 kts 14°
2026-04-20 04:12 -33.94408 151.22652 1212 ft 156 kts 346°
2026-04-20 04:12 -33.93331 151.22304 1320 ft 166 kts 341°
2026-04-20 04:12 -33.92222 151.21967 1522 ft 164 kts 347°
2026-04-20 04:12 -33.91181 151.21632 1350 ft 148 kts 343°
2026-04-20 04:13 -33.90372 151.21021 946 ft 143 kts 292°
2026-04-20 04:13 -33.90592 151.19905 876 ft 142 kts 226°
2026-04-20 04:13 -33.91265 151.19171 756 ft 119 kts 217°
2026-04-20 04:13 -33.91925 151.18599 643 ft 118 kts 205°
2026-04-20 04:14 -33.92750 151.18367 590 ft 127 kts 182°
2026-04-20 04:14 -33.93568 151.18459 397 ft 109 kts 170°
2026-04-20 04:14 -33.94370 151.18685 221 ft 119 kts 171°
2026-04-20 04:14 -33.95134 151.18878 70 ft 107 kts 172°
2026-04-20 04:15 -33.95574 151.18985 29 ft 86 kts 173°
2026-04-20 04:15 -33.96617 151.19272 238 ft 134 kts 171°
2026-04-20 04:15 -33.97206 151.19450 425 ft 128 kts 162°
2026-04-20 04:15 -33.97795 151.20103 601 ft 124 kts 121°
2026-04-20 04:16 -33.97710 151.21640 1117 ft 161 kts 82°
2026-04-20 04:16 -33.97166 151.22939 1201 ft 185 kts 45°
2026-04-20 04:16 -33.96004 151.23246 1167 ft 173 kts 347°
2026-04-20 04:16 -33.95209 151.22991 998 ft 179 kts 345°
2026-04-20 04:17 -33.94009 151.22643 761 ft 173 kts 343°
2026-04-20 04:17 -33.92910 151.22291 879 ft 155 kts 341°
2026-04-20 04:17 -33.91989 151.21735 933 ft 140 kts 311°
2026-04-20 04:17 -33.91805 151.20696 974 ft 131 kts 248°
2026-04-20 04:18 -33.92093 151.19674 954 ft 129 kts 243°
2026-04-20 04:18 -33.92575 151.18784 688 ft 124 kts 221°
2026-04-20 04:18 -33.93308 151.18462 528 ft 108 kts 177°
2026-04-20 04:18 -33.94048 151.18601 384 ft 113 kts 171°
2026-04-20 04:19 -33.94816 151.18799 145 ft 110 kts 172°
2026-04-20 04:19 -33.95527 151.18979 29 ft 90 kts 171°
2026-04-20 04:19 -33.96150 151.19136 36 ft 118 kts 165°
2026-04-20 04:19 -33.96988 151.19407 665 ft 116 kts 164°
2026-04-20 04:20 -33.97721 151.19962 948 ft 133 kts 131°
2026-04-20 04:20 -33.97932 151.21143 1194 ft 162 kts 91°
2026-04-20 04:20 -33.97584 151.22525 1332 ft 173 kts 76°
2026-04-20 04:20 -33.96877 151.23605 1336 ft 172 kts 25°
2026-04-20 04:21 -33.95702 151.23549 1300 ft 175 kts 343°
2026-04-20 04:21 -33.94553 151.23180 1267 ft 172 kts 335°
2026-04-20 04:21 -33.93330 151.22687 1321 ft 200 kts 340°
2026-04-20 04:21 -33.92115 151.22089 1322 ft 184 kts 334°
2026-04-20 04:22 -33.90997 151.21473 1370 ft 168 kts 332°
2026-04-20 04:22 -33.90000 151.20879 1409 ft 155 kts 329°
2026-04-20 04:22 -33.89016 151.20237 1454 ft 166 kts 328°
2026-04-20 04:22 -33.88470 151.19194 1634 ft 150 kts 255°
2026-04-20 04:23 -33.88858 151.18114 1556 ft 137 kts 235°
2026-04-20 04:23 -33.89497 151.17426 1354 ft 119 kts 208°
2026-04-20 04:23 -33.90262 151.17050 1102 ft 118 kts 191°
2026-04-20 04:23 -33.91052 151.16895 773 ft 117 kts 189°
2026-04-20 04:24 -33.91845 151.16893 402 ft 118 kts 169°
2026-04-20 04:24 -33.92662 151.17090 151 ft 115 kts 169°
2026-04-20 04:24 -33.93373 151.17273 28 ft 92 kts 171°
2026-04-20 04:24 -33.93820 151.17389 17 ft 27 kts 171°
2026-04-20 04:25 -33.93900 151.17533 19 ft 14 kts 78°
2026-04-20 04:25 -33.93897 151.17549 19 ft 0 kts 75°
2026-04-20 04:26 -33.93894 151.17562 19 ft 4 kts 75°
2026-04-20 04:26 -33.93889 151.17585 19 ft 0 kts 75°
2026-04-20 04:27 -33.93887 151.17591 19 ft 4 kts 72°
2026-04-20 04:27 -33.93861 151.17697 19 ft 18 kts 75°
2026-04-20 04:27 -33.93819 151.17872 25 ft 25 kts 73°
2026-04-20 04:28 -33.93771 151.18075 31 ft 27 kts 74°
2026-04-20 04:28 -33.93788 151.18246 29 ft 14 kts 154°
2026-04-20 04:28 -33.93803 151.18253 28 ft 0 kts 162°
2026-04-20 04:30 -33.93867 151.18274 28 ft 22 kts 164°
2026-04-20 04:31 -33.94006 151.18321 27 ft 14 kts 165°